This is the latest recevied weather packets stored in our database for station/object WX6HNX-6. If no packets are shown the sender has not sent any weather packets the latest 10 day(s).
| Time | Temp. | Humidity | Pressure | Rain* | Wind** | Luminosity | Snow |
|---|---|---|---|---|---|---|---|
| 1777924024 | 18.89° C | 56% | 1014.8 hPa | 0 mm | - | - | - |
| 1777923726 | 18.89° C | 54% | 1014.9 hPa | 0 mm | - | - | - |
| 1777923425 | 18.89° C | 52% | 1014.9 hPa | 0 mm | - | - | - |
| 1777923124 | 19.44° C | 53% | 1014.9 hPa | 0 mm | - | - | - |
| 1777922825 | 18.89° C | 55% | 1015 hPa | 0 mm | - | - | - |
| 1777922407 | 18.89° C | 56% | 1015 hPa | 0 mm | - | - | - |
| 1777921807 | 18.33° C | 55% | 1015 hPa | 0 mm | - | - | - |
| 1777921507 | 18.33° C | 58% | 1015.1 hPa | 0 mm | - | - | - |
| 1777921208 | 18.33° C | 54% | 1015.2 hPa | 0 mm | - | - | - |
| 1777920908 | 18.33° C | 57% | 1015.1 hPa | 0 mm | - | - | - |
| 1777920521 | 17.78° C | 54% | 1015.2 hPa | 0 mm | - | - | - |
| 1777920221 | 18.33° C | 54% | 1015.2 hPa | 0 mm | - | - | - |
| 1777919321 | 18.33° C | 55% | 1015.5 hPa | 0 mm | - | - | - |
| 1777918721 | 18.33° C | 57% | 1015.5 hPa | 0 mm | - | - | - |
| 1777918421 | 18.33° C | 54% | 1015.5 hPa | 0 mm | - | - | - |
| 1777918121 | 18.33° C | 56% | 1015.5 hPa | 0 mm | - | - | - |
| 1777917821 | 17.78° C | 58% | 1015.6 hPa | 0 mm | - | - | - |
| 1777917521 | 17.78° C | 57% | 1015.6 hPa | 0 mm | - | - | - |
| 1777917221 | 17.78° C | 60% | 1015.7 hPa | 0 mm | - | - | - |
| 1777916922 | 17.22° C | 59% | 1015.6 hPa | 0 mm | - | - | - |
| 1777916621 | 17.22° C | 61% | 1015.6 hPa | 0 mm | - | - | - |
| 1777916321 | 17.78° C | 61% | 1015.7 hPa | 0 mm | - | - | - |
| 1777916022 | 17.22° C | 61% | 1015.7 hPa | 0 mm | - | - | - |
| 1777915721 | 17.22° C | 61% | 1015.7 hPa | 0 mm | - | - | - |
| 1777915421 | 16.67° C | 61% | 1015.6 hPa | 0 mm | - | - | - |
* Rain latest hour (hover to see other rain measurements)
** Current wind speed in m/s (hover to see current wind gust speed)